When you browse on this site, cookies collect data to enhance your experience and personalize the content and advertising you see.
Visit our Privacy Policy to learn more. By continuing to use the site, you agree to this use of cookies and data.
  • Em Portugal
  • Lista de países
  • Para 7 dias
  • Temperatura da água
  • Mapa do tempo
  • Widgets de tempo
  • user-avatar
    Iniciar Sessão

    Previsão horária em Voshod

    Hoje, 25 Agosto, Domingo

    Tempo Temperatura Precipitação Vento Pressão Humidade
    00:00 +15°C° 0 mm 2 m/s 755 mmHg 73%
    01:00 +14°C° 0 mm 2 m/s 754 mmHg 74%
    02:00 +14°C° 0 mm 2 m/s 754 mmHg 76%
    03:00 +13°C° 0 mm 3 m/s 754 mmHg 77%
    04:00 +13°C° 0 mm 3 m/s 754 mmHg 80%
    05:00 +13°C° 0 mm 3 m/s 754 mmHg 82%
    06:00 +14°C° 0 mm 3 m/s 754 mmHg 85%
    07:00 +16°C° 0 mm 3 m/s 754 mmHg 79%
    08:00 +17°C° 0 mm 4 m/s 754 mmHg 74%
    09:00 +19°C° 0 mm 5 m/s 754 mmHg 68%
    10:00 +19°C° 0 mm 5 m/s 754 mmHg 66%
    11:00 +19°C° 0 mm 6 m/s 754 mmHg 65%
    12:00 +20°C° 0 mm 6 m/s 754 mmHg 63%
    13:00 +19°C° 0 mm 6 m/s 755 mmHg 65%
    14:00 +17°C° 0 mm 6 m/s 755 mmHg 67%
    15:00 +16°C° 0 mm 5 m/s 755 mmHg 70%
    16:00 +16°C° 0 mm 5 m/s 756 mmHg 73%
    17:00 +17°C° 0 mm 4 m/s 756 mmHg 76%
    18:00 +15°C° 0 mm 4 m/s 756 mmHg 79%
    19:00 +14°C° 0 mm 4 m/s 756 mmHg 82%
    20:00 +13°C° 0 mm 3 m/s 757 mmHg 85%
    21:00 +12°C° 0 mm 3 m/s 758 mmHg 89%
    22:00 +12°C° 0 mm 3 m/s 758 mmHg 91%
    23:00 +11°C° 0 mm 3 m/s 758 mmHg 93%

    Amanhã, 26 Agosto, Segunda-feira

    Tempo Temperatura Precipitação Vento Pressão Humidade
    00:00 +11°C° 0 mm 3 m/s 758 mmHg 94%
    01:00 +10°C° 0 mm 2 m/s 759 mmHg 95%
    02:00 +10°C° 0 mm 2 m/s 759 mmHg 96%
    03:00 +9°C° 0 mm 2 m/s 759 mmHg 97%
    04:00 +9°C° 0 mm 2 m/s 759 mmHg 97%
    05:00 +9°C° 0 mm 2 m/s 760 mmHg 96%
    06:00 +9°C° 0 mm 2 m/s 760 mmHg 96%
    07:00 +12°C° 0 mm 2 m/s 760 mmHg 88%
    08:00 +13°C° 0 mm 2 m/s 760 mmHg 80%
    09:00 +14°C° 0 mm 3 m/s 760 mmHg 72%
    10:00 +16°C° 0 mm 3 m/s 760 mmHg 68%
    11:00 +17°C° 0 mm 3 m/s 760 mmHg 64%
    12:00 +17°C° 0 mm 3 m/s 760 mmHg 60%
    13:00 +18°C° 0 mm 3 m/s 760 mmHg 59%
    14:00 +18°C° 0 mm 3 m/s 759 mmHg 57%
    15:00 +19°C° 0 mm 3 m/s 759 mmHg 56%
    16:00 +18°C° 0 mm 2 m/s 759 mmHg 62%
    17:00 +17°C° 0 mm 2 m/s 758 mmHg 67%
    18:00 +18°C° 0 mm 1 m/s 758 mmHg 73%
    19:00 +16°C° 0 mm 1 m/s 758 mmHg 77%
    20:00 +14°C° 0 mm 1 m/s 758 mmHg 80%
    21:00 +13°C° 0 mm 1 m/s 757 mmHg 83%
    22:00 +13°C° 0 mm 2 m/s 757 mmHg 85%
    23:00 +13°C° 0 mm 2 m/s 757 mmHg 86%

    Depois de amanhã, 27 Agosto, Terça-feira

    Tempo Temperatura Precipitação Vento Pressão Humidade
    00:00 +12°C° 0 mm 3 m/s 756 mmHg 88%
    01:00 +12°C° 0 mm 3 m/s 756 mmHg 87%
    02:00 +12°C° 0 mm 4 m/s 755 mmHg 85%
    03:00 +12°C° 0 mm 4 m/s 755 mmHg 84%
    04:00 +12°C° 0 mm 4 m/s 754 mmHg 83%
    05:00 +13°C° 0 mm 5 m/s 753 mmHg 82%
    06:00 +13°C° 0 mm 5 m/s 752 mmHg 81%
    07:00 +14°C° 0 mm 5 m/s 752 mmHg 79%
    08:00 +15°C° 0 mm 6 m/s 751 mmHg 78%
    09:00 +16°C° 0 mm 6 m/s 751 mmHg 76%
    10:00 +16°C° 0.3 mm 6 m/s 750 mmHg 77%
    11:00 +17°C° 0.3 mm 6 m/s 750 mmHg 78%
    12:00 +17°C° 0.3 mm 6 m/s 749 mmHg 79%
    13:00 +19°C° 1 mm 5 m/s 749 mmHg 79%
    14:00 +19°C° 1 mm 5 m/s 748 mmHg 78%
    15:00 +19°C° 1 mm 5 m/s 748 mmHg 77%
    16:00 +19°C° 0.5 mm 5 m/s 747 mmHg 79%
    17:00 +18°C° 0.5 mm 4 m/s 747 mmHg 82%
    18:00 +17°C° 0.5 mm 4 m/s 746 mmHg 84%
    19:00 +14°C° 0.1 mm 4 m/s 746 mmHg 87%
    20:00 +13°C° 0.1 mm 4 m/s 746 mmHg 90%
    21:00 +12°C° 0.1 mm 4 m/s 746 mmHg 94%
    22:00 +11°C° 0.1 mm 4 m/s 747 mmHg 93%
    23:00 +10°C° 0.1 mm 5 m/s 747 mmHg 92%

    28 Agosto, Quarta-feira

    Tempo Temperatura Precipitação Vento Pressão Humidade
    00:00 +10°C° 0.1 mm 6 m/s 747 mmHg 91%
    01:00 +8°C° 0 mm 6 m/s 747 mmHg 91%
    02:00 +7°C° 0 mm 6 m/s 747 mmHg 91%
    03:00 +5°C° 0 mm 6 m/s 747 mmHg 91%
    04:00 +5°C° 0.1 mm 6 m/s 747 mmHg 89%
    05:00 +5°C° 0.1 mm 6 m/s 747 mmHg 87%
    06:00 +5°C° 0.1 mm 6 m/s 748 mmHg 86%
    07:00 +7°C° 0 mm 6 m/s 748 mmHg 84%
    08:00 +7°C° 0 mm 6 m/s 748 mmHg 82%
    09:00 +6°C° 0 mm 7 m/s 748 mmHg 80%
    10:00 +6°C° 0 mm 7 m/s 748 mmHg 79%
    11:00 +6°C° 0 mm 7 m/s 749 mmHg 79%
    12:00 +6°C° 0 mm 7 m/s 749 mmHg 78%
    13:00 +6°C° 0 mm 7 m/s 749 mmHg 78%
    14:00 +8°C° 0 mm 6 m/s 750 mmHg 77%
    15:00 +8°C° 0 mm 6 m/s 750 mmHg 77%
    16:00 +8°C° 0 mm 6 m/s 750 mmHg 76%
    17:00 +8°C° 0 mm 6 m/s 750 mmHg 75%
    18:00 +8°C° 0 mm 7 m/s 751 mmHg 74%
    19:00 +8°C° 0 mm 7 m/s 750 mmHg 73%
    20:00 +8°C° 0 mm 7 m/s 750 mmHg 73%
    21:00 +8°C° 0 mm 7 m/s 750 mmHg 72%
    22:00 +8°C° 0 mm 7 m/s 750 mmHg 72%
    23:00 +6°C° 0 mm 7 m/s 750 mmHg 72%

    29 Agosto, Quinta-feira

    Tempo Temperatura Precipitação Vento Pressão Humidade
    00:00 +6°C° 0 mm 7 m/s 750 mmHg 72%
    01:00 +6°C° 0 mm 7 m/s 750 mmHg 73%
    02:00 +6°C° 0 mm 7 m/s 750 mmHg 74%
    03:00 +6°C° 0 mm 8 m/s 750 mmHg 75%
    04:00 +6°C° 0 mm 8 m/s 750 mmHg 75%
    05:00 +5°C° 0 mm 8 m/s 750 mmHg 75%
    06:00 +5°C° 0 mm 8 m/s 751 mmHg 75%
    07:00 +5°C° 0 mm 8 m/s 751 mmHg 77%
    08:00 +5°C° 0 mm 7 m/s 751 mmHg 78%
    09:00 +5°C° 0 mm 7 m/s 751 mmHg 79%
    10:00 +5°C° 0 mm 7 m/s 751 mmHg 78%
    11:00 +5°C° 0 mm 7 m/s 752 mmHg 77%
    12:00 +6°C° 0 mm 7 m/s 752 mmHg 77%
    13:00 +6°C° 0.1 mm 7 m/s 752 mmHg 79%
    14:00 +6°C° 0.1 mm 7 m/s 753 mmHg 81%
    15:00 +6°C° 0.1 mm 7 m/s 753 mmHg 84%
    16:00 +7°C° 0 mm 6 m/s 753 mmHg 83%
    17:00 +7°C° 0 mm 6 m/s 754 mmHg 81%
    18:00 +8°C° 0 mm 5 m/s 754 mmHg 80%
    19:00 +7°C° 0 mm 4 m/s 754 mmHg 81%
    20:00 +7°C° 0 mm 4 m/s 754 mmHg 82%
    21:00 +8°C° 0 mm 3 m/s 755 mmHg 83%
    22:00 +7°C° 0 mm 3 m/s 755 mmHg 86%
    23:00 +7°C° 0 mm 3 m/s 755 mmHg 88%

    30 Agosto, Sexta-feira

    Tempo Temperatura Precipitação Vento Pressão Humidade
    00:00 +6°C° 0 mm 2 m/s 755 mmHg 90%
    01:00 +5°C° 0 mm 3 m/s 755 mmHg 91%
    02:00 +5°C° 0 mm 3 m/s 755 mmHg 91%
    03:00 +5°C° 0 mm 3 m/s 755 mmHg 92%
    04:00 +5°C° 0 mm 3 m/s 755 mmHg 91%
    05:00 +5°C° 0 mm 3 m/s 755 mmHg 90%
    06:00 +4°C° 0 mm 3 m/s 755 mmHg 89%
    07:00 +6°C° 0 mm 4 m/s 755 mmHg 81%
    08:00 +8°C° 0 mm 4 m/s 754 mmHg 74%
    09:00 +9°C° 0 mm 5 m/s 754 mmHg 66%
    10:00 +10°C° 0 mm 5 m/s 754 mmHg 63%
    11:00 +12°C° 0 mm 5 m/s 754 mmHg 60%
    12:00 +13°C° 0 mm 4 m/s 754 mmHg 56%
    13:00 +13°C° 0 mm 4 m/s 754 mmHg 59%
    14:00 +13°C° 0 mm 4 m/s 753 mmHg 61%
    15:00 +12°C° 0 mm 4 m/s 753 mmHg 63%
    16:00 +11°C° 0.3 mm 4 m/s 754 mmHg 70%
    17:00 +10°C° 0.3 mm 4 m/s 754 mmHg 77%
    18:00 +8°C° 0.3 mm 4 m/s 754 mmHg 84%
    19:00 +8°C° 0.1 mm 3 m/s 754 mmHg 86%
    20:00 +7°C° 0.1 mm 3 m/s 754 mmHg 88%
    21:00 +6°C° 0.1 mm 2 m/s 755 mmHg 90%
    22:00 +5°C° 0 mm 2 m/s 755 mmHg 91%
    23:00 +5°C° 0 mm 2 m/s 755 mmHg 91%
    Mostrar mais